Погода в Вентспилсе

Погода в Вентспилсе : погода сейчас, прогноз погоды и архив. Всё, что Вы хотите узнать о погоде в Вентспилсе!

Поиск расширенной информации на нашем сайте:

Другие новости

Новости СМИ2

Главная страница сайта

Новости сайта

03.07.2017

Напоминаем, что на нашем специализированном сайте Метеоцентр.Азия вы можете получить высокодетализированные автоматические прогнозы погоды по пунктам России, СНГ и мира в авиационном формате (включающие направление и скорость ветра, видимость, явления погоды, количество и форму облачности, нижнюю и верхнюю границу облачности).


Погода в Вентспилсе - сегодня

Время (UTC), дата Ветер
(°,м/с) 
Видим.   Явления Облачность Т
(°С)
Тd
(°С)
f(%) Тe
(°С)
Pmin
(гПа)
dP
(гПа)
Po
(мм)
O2
(г/м3)
Тmin Tmax R s Состояние
почвы
03 17.10.17 200 (Ю) 10 км    3/3 300 м 
[St]
+11.1 +10.1 94 +13  1017.2  763  293           
06 17.10.17 200 (Ю) 0800 м  туман  8/4 300 м средняя, верхняя 
[St|Ac trans|Ci fib]
+11 +10.3 95 +12  1017.5  0.3  763  293  +9.9         
09 17.10.17 220 (ЮЗ) 20000 м  {ливн. осадки, туман}  9/6 300 м средняя 
[St|Ac trans]
+12.3 +11.6 95 +15  1015.5  -2  761  290           
12 17.10.17 240 (ЮЗ) 9-15{15}  20000 м  в посл. час ливневой дождь{туман}  10/8 600 м кучево-дожд., средняя 
[Cb calv|Ac cuf]
+14.4 +11.3 82 +16  1012.4  -3.1  759  288           
15 17.10.17 250 (З) 9-14{17}  20000 м    10/8 300 м средняя 
[St|As op]
+13.1 +12.1 94 +16  1010.6  -1.8  758  288           
18 17.10.17 270 (З) 6-11{17}  10 км    8/0 средняя 
[Ac trans]
+12.7 +11.4 92 +15  1009.6  -1  757  289    +14.5  0.3     
21 17.10.17 270 (З) 7-12{12}  10 км    8/0 средняя 
[Ac trans]
+12.9 +9.8 81 +13  1009.3  -0.3  757  289           
00 18.10.17 280 (З) 7-13{15}  10 км    9/0 средняя 
[Ac trans]
+12.7 +9.6 81 +12  1008.3  -1  756  289           
03 18.10.17 280 (З) 7-12{14}  10 км    9/0 средняя 
[Ac trans]
+12.3 +9.6 84 +12  1007.1  -1.2  755  289           
06 18.10.17 280 (З) 7-11{15}  20000 м    10/8 570 м кучево-дожд., средняя 
[Cb calv|Ac As]
+12.1 +9.8 86 +12  1007.4  0.3  755  289  +12.1         
09 18.10.17 310 (СЗ) 8-12{14}  20000 м    9/8 660 м средняя 
[Sc diur, vesp|Ac trans]
+12.3 +10.1 86 +12  1009.1  1.7  757  289           
12 18.10.17 010 (С) 6{14}  20000 м    9/9 750 м 
[Sc diur, vesp]
+11.1 +7.7 80 +10  1011.7  2.6  758  292           
15 18.10.17 010 (С) 20000 м    8/4 600 м верхняя 
[Sc|Ci fib]
+10.2 +5.5 73 +9  1013.6  1.9  760  294           
18 18.10.17 340 (С) 10 км    6/0 верхняя 
[Ci fib]
+9.9 +5.8 76 +9  1015.3  1.7  761  294    +12.6       
21 18.10.17 350 (С) 10 км    3/3 600 м 
[Sc]
+10 +6.3 78 +10  1016.4  1.1  762  294           
00 19.10.17 350 (С) 10 км    ясно 
+9.8 +5.1 73 +9  1017.1  0.7  763  296           
03 19.10.17 350 (С) 10 км    ясно 
+10 +4.7 70 +10  1017.7  0.6  763  295           
06 19.10.17 350 (С) 20000 м    3/3 600 м 
[Cu hum]
+10.2 +5.3 72 +10  1018.9  1.2  764  295  +9.4         
09 19.10.17 360 (С) 20000 м    3/3 600 м 
[Cu hum]
+11.8 +5.4 65 +12  1020.4  1.5  765  294           
12 19.10.17 340 (С) 20000 м    4/4 600 м 
[Cu Sc]
+11.8 +4.9 63 +12  1021  0.6  765  295           
15 19.10.17 030 (СВ) 20000 м    3/3 600 м 
[Sc]
+10.1 +4.8 70 +10  1021.3  0.3  766  296           
18 19.10.17 тихо ()   10 км    ясно 
+6.1 +4 86 +6  1022.1  0.8  766  301    +12.2       
21 19.10.17 тихо ()   10 км    ясно 
+3.8 +2.9 94 +4  1022.6  0.5  767  304           
00 20.10.17 160 (Ю) 10 км    ясно 
+2.3 +1.7 96 +3  1022.8  0.2  767  306           
03 20.10.17 140 (ЮВ) 10 км    ясно 
+2.1 +1.6 96 +3  1022.7  -0.1  767  306           
Время (UTC), дата Ветер
(°,м/с) 
Видим.   Явления Облачность Т
(°С)
Тd
(°С)
f(%) Тe
(°С)
Pmin
(гПа)
dP
(гПа)
Po
(мм)
O2
(г/м3)
Тmin Tmax R s Состояние
почвы

Для получения пояснительной информации подведите курсор к названию столбца.

ПОГОДА в Вентспилсе - архив

Всё, что Вы хотите узнать о погоде в Вентспилсе - удобно и подробно!

Выберите нужную дату (начиная с 1 января 2015* года) и нажмите кнопку "Найти".
Будут отображены архивные сводки погоды по пункту Вентспилс, начиная с указанной даты.


Отображать данные в формате CSV (для использования в таблицах Excel)


Внимание! Наш архив погоды предназначен исключительно для личного некоммерческого использования в познавательных целях. Если Вам необходимы официальные справки о состоянии погоды (для производственных, юридических, коммерческих и т.п. целей), обращайтесь в органы Росгидромета.

*Примечание: данная дата относится к архиву по метеостанциям СССР (Россия, СНГ, Балтия).
Архив по метеостанциям Зарубежной Европы и Азии (кроме Китая) хранится 10 дней, по другим регионам земного шара (Китай, Африка, Америка, Австралия, Океания) - 1 день.

Вентспилс - район местоположения метеостанции


Название, широта, долгота, высота метеостанции:
Вентспилс 57.4°ш. 21.5°д. 3 м над ур. моря [Латвия]

Дополнительная информация

В oтличие oт бoльшинства пoгoдных сайтoв мы публикуем пoдрoбную метеoинфoрмацию в детальнoм прoфессиoнальнoм фoрмате.

Характеристики температуры и влажнoсти вoздуха измеряются на высoте 2 м в тени вдали oт зданий и деревьев.
Скoрoсть ветра измеряется на высoте 10 м (на урoвне рoста челoвека скoрoсть ветра ниже в 1.5-2 раза). Если метеoстанция нахoдится в гoрoде или в лесу, тo скoрoсть ветра занижена на 2-4 м/с пo сравнению с oткрытым местoм. Скoрoсть ветра над акватoриями крупных рек и oзёр, а также на вершинах хoлмoв на 2-5 м/с выше, чем в oбычных услoвиях.
Атмoсфернoе давление в разных тoчках местнoсти мoжет значительнo oтличаться oт давления на метеoстанции, в зависимoсти oт услoвий рельефа (при пoдъёме на 10 м давление пoнижается примернo на 1 мм рт.ст.).